Regional Weather Roundup
Issued by NWS

Home | Current Version | Previous Version | Text Only | Print | Product List | Glossary Off
Versions: 1 2 3 4 5 6 7 8 9 10 11 12 13 14 15 16 17 18 19 20 21 22 23 24 25 26 27 28 29 30 31 32 33 34 35 36 37 38 39 40 41 42 43 44 45 46 47 48 49 50

000
ASUS45 KCYS 280210
RWRWY

WYOMING REGIONAL WEATHER ROUNDUP
NATIONAL WEATHER SERVICE CHEYENNE WY
700 PM MST MON FEB 27 2017

NOTE:  "FAIR" INDICATES FEW OR NO CLOUDS BELOW 12,000 FEET
WITH NO SIGNIFICANT WEATHER AND/OR OBSTRUCTIONS TO VISIBILITY.

WYZ001-280300-
YELLOWSTONE NATIONAL PARK

CITY           SKY/WX    TMP DP  RH WIND       PRES   REMARKS
LK YELLOWSTONE   N/A     10   6  84 W8        29.56R WCI  -2
W YELLOWSTONE  NOT AVBL

$$
WYZ002>013-054>058-071-098>099-280300-
NORTHERN WYOMING

CITY           SKY/WX    TMP DP  RH WIND       PRES   REMARKS
JACKSON        MOCLDY    16  12  86 S16       29.65R WCI   0
CODY           FAIR      29  17  61 W5        29.55R WCI  24
GREYBULL       MOCLDY    34  19  54 CALM      29.54S
WORLAND        MOCLDY    30  21  69 S9        29.54R WCI  22
SHERIDAN       FAIR      25  17  72 VRB7      29.59F WCI  17
BUFFALO        FAIR      27  11  51 CALM      29.58R
GILLETTE       FAIR      26  18  71 CALM      29.60R
HULETT         FAIR      30  18  59 NE5       29.62S WCI  25
NEWCASTLE      FAIR      27  23  86 SE7       29.63R WCI  19

$$
WYZ014>020-022>026-101>103-280300-
CENTRAL WYOMING

CITY           SKY/WX    TMP DP  RH WIND       PRES   REMARKS
BIG PINEY      FAIR       5   2  87 N17       29.66R WCI -14
PINEDALE       FAIR      10   5  79 NW14      29.66R WCI  -5
DUBOIS         CLOUDY    18   1  49 W28G37    29.54R WCI  -1
LANDER         CLOUDY    27  15  61 W10       29.57R WCI  17
RIVERTON       MOCLDY    23  15  71 W12       29.57R WCI  12
CASPER         CLOUDY    29  19  66 S21G30    29.59R WCI  16
DOUGLAS        FAIR      20  18  92 S6        29.63R WCI  12

$$
WYZ021-027>030-104>119-280300-
SOUTHERN WYOMING

CITY           SKY/WX    TMP DP  RH WIND       PRES   REMARKS
EVANSTON       CLOUDY    16  12  84 SW10      29.72R WCI   4
FORT BRIDGER   CLOUDY    20  19  94 W18       29.74R WCI   5
ROCK SPRINGS   CLOUDY    20  13  74 W21       29.68R WCI   4
DIXON          LGT SNOW  23  20  91 W3        29.75R
RAWLINS        LGT SNOW  21  17  84 SW9       29.67R VSB 3/4 WCI  11
SARATOGA       LGT SNOW  21  21 100 W7        29.69R WCI  13
LARAMIE        LGT SNOW  21  17  84 CALM      29.63R FOG
CHEYENNE       CLOUDY    28  21  75 NW15G22   29.61R WCI  16
TORRINGTON     MOCLDY    29  26  89 W5        29.63R WCI  24
PINE BLUFFS    FAIR      28  27  93 N8        29.65R WCI  20

$$



USA.gov is the U.S. government's official web portal to all federal, state and local government web resources and services.